Location: Bothwell
(41.7170°N, 112.2589°W)
Time: 14:23:16
(UTC+00:00)

Tiros 1 - Pass Details

Date: 15 May 2026
Orbit: 618 x 649 km, 48.4° (Epoch: 7 June)

Event Time Altitude Azimuth Distance (km) Brightness Sun altitude
Rises 08:55:31 0° 271° (W) 2,910 - -25.9°
Reaches altitude 10° 08:57:58 10° 278° (W) 1,998 - -25.7°
Exits shadow 09:00:37 29° 303° (WNW) 1,155 8.4 -25.5°
Maximum altitude 09:02:18 40° 349° (NNW) 925 8.2 -25.4°
Drops below altitude 10° 09:06:36 10° 59° (ENE) 1,986 10.4 -25.0°
Sets 09:09:02 0° 67° (ENE) 2,890 11.2 -24.8°
